Date String (YYYY-MM-DD hh:mm:ss) UTC,Instrument flags,Ambient pressure (hPa),Sample flow (lpm),Bypass flow (lpm),Sample temperature (°C),Ambient temperature (°C),ASC tube jacket temperature (°C),LED temperature (°C),Box temperature (°C),Sample RH (%),Span deviation,Mass concentration (μg/m³),Mass concentration (μg/m³),Mass concentration (μg/m³)
DateTimeUTC,F1_M11,P_M11,Q1_M11,Q2_M11,T1_M11,T2_M11,T3_M11,T4_M11,T5_M11,U1_M11,ZSPAN_M11,X0_M11,X2_M11,X1_M11
2022-03-30 18:00:00,,0818.4,5.01,0.00,22.1,21.4,00.0,31.2,23.9,15.5,0000.2,0010.15,0006.70,0006.34
2022-03-30 18:01:00,,0818.4,5.00,0.00,22.1,21.5,00.0,31.2,23.9,15.2,0000.0,0010.14,0006.69,0006.34
2022-03-30 18:02:00,,0818.4,5.00,0.00,22.1,21.5,00.0,31.2,23.9,15.6,-000.7,0010.24,0006.71,0006.34
2022-03-30 18:03:00,,0818.3,5.00,0.00,22.1,21.5,00.0,31.2,23.8,15.3,-000.7,0010.27,0006.71,0006.33
2022-03-30 18:04:00,,0818.3,5.00,0.00,22.1,21.5,00.0,31.2,23.8,15.2,-000.1,0010.27,0006.71,0006.33
2022-03-30 18:05:00,,0818.3,4.99,0.00,22.1,21.5,00.0,31.2,23.8,15.4,-000.4,0010.33,0006.73,0006.34
2022-03-30 18:06:00,,0818.2,5.00,0.00,22.1,21.5,00.0,31.2,23.8,15.2,-000.4,0010.32,0006.73,0006.33
2022-03-30 18:07:00,,0818.2,4.99,0.00,22.1,21.5,00.0,31.2,23.9,15.4,-000.0,0010.95,0006.70,0006.31
2022-03-30 18:08:00,,0818.2,5.00,0.00,22.1,21.5,00.0,31.2,23.9,16.0,0000.0,0011.47,0006.67,0006.29
2022-03-30 18:09:00,,0818.2,5.00,0.00,22.1,21.5,00.0,31.2,23.9,15.1,0000.0,0010.86,0006.63,0006.26
2022-03-30 18:10:00,,0818.2,5.02,0.00,22.1,21.5,00.0,31.1,23.9,14.8,0000.0,0010.49,0006.57,0006.24
2022-03-30 18:11:00,,0818.1,5.00,0.00,22.1,21.6,00.0,31.1,23.9,15.5,0000.0,0011.10,0006.51,0006.20
2022-03-30 18:12:00,,0818.1,5.01,0.00,22.2,21.6,00.0,31.1,23.9,15.1,0000.0,0011.68,0006.53,0006.18
2022-03-30 18:13:00,,0818.0,5.01,0.00,22.2,21.6,00.0,31.1,23.9,15.3,0000.0,0011.74,0006.55,0006.17
2022-03-30 18:14:00,,0818.1,5.00,0.00,22.2,21.7,00.0,31.1,24.0,15.6,0000.0,0011.73,0006.55,0006.15
2022-03-30 18:15:00,,0818.1,5.00,0.00,22.2,21.7,00.0,31.1,24.0,15.5,0000.0,0011.70,0006.53,0006.13
2022-03-30 18:16:00,,0818.1,4.99,0.00,22.2,21.7,00.0,31.2,24.0,14.8,0000.0,0011.60,0006.48,0006.10
2022-03-30 18:17:00,,0818.1,5.00,0.00,22.2,21.7,00.0,31.2,24.0,14.8,0000.0,0011.62,0006.48,0006.08
2022-03-30 18:18:00,,0818.1,5.01,0.00,22.2,21.7,00.0,31.2,24.0,15.0,0000.0,0011.05,0006.50,0006.08
2022-03-30 18:19:00,,0818.2,5.01,0.00,22.2,21.7,00.0,31.2,24.0,14.8,0000.0,0010.51,0006.54,0006.08
2022-03-30 18:20:00,,0818.1,4.98,0.00,22.2,21.7,00.0,31.2,24.0,14.6,0000.0,0010.68,0006.55,0006.08
2022-03-30 18:21:00,,0818.1,5.00,0.00,22.2,21.7,00.0,31.2,24.0,15.0,0000.0,0010.73,0006.57,0006.09
2022-03-30 18:22:00,,0818.1,5.01,0.00,22.2,21.6,00.0,31.2,24.0,14.9,0000.0,0010.19,0006.60,0006.10
2022-03-30 18:23:00,,0818.1,5.00,0.00,22.2,21.6,00.0,31.2,24.0,14.7,0000.0,0009.61,0006.58,0006.09
2022-03-30 18:24:00,,0818.1,5.00,0.00,22.2,21.6,00.0,31.2,24.0,15.0,0000.0,0009.46,0006.51,0006.08
2022-03-30 18:25:00,,0818.1,5.00,0.00,22.2,21.6,00.0,31.2,24.0,14.6,0000.0,0009.52,0006.49,0006.08
2022-03-30 18:26:00,,0818.1,5.00,0.00,22.2,21.6,00.0,31.2,24.0,14.7,0000.0,0010.08,0006.52,0006.09
2022-03-30 18:27:00,,0818.0,5.00,0.00,22.2,21.6,00.0,31.2,24.0,14.7,0000.0,0010.28,0006.55,0006.09
2022-03-30 18:28:00,,0818.1,5.01,0.00,22.2,21.6,00.0,31.2,24.0,14.5,0000.0,0010.54,0006.56,0006.10
2022-03-30 18:29:00,,0818.1,4.98,0.00,22.2,21.6,00.0,31.2,24.0,14.4,0000.0,0010.46,0006.55,0006.11
2022-03-30 18:30:00,,0818.0,5.00,0.00,22.2,21.7,00.0,31.2,24.0,14.4,0000.0,0010.55,0006.54,0006.10
2022-03-30 18:31:00,,0818.0,5.00,0.00,22.2,21.7,00.0,31.2,24.1,14.8,0000.0,0010.43,0006.54,0006.11
2022-03-30 18:32:00,,0818.0,5.00,0.00,22.3,21.7,00.0,31.2,24.1,15.3,0000.0,0010.50,0006.55,0006.11
2022-03-30 18:33:00,,0818.0,5.01,0.00,22.3,21.8,00.0,31.2,24.1,15.1,0000.0,0010.66,0006.56,0006.13
2022-03-30 18:34:00,,0818.0,5.01,0.00,22.3,21.8,00.0,31.3,24.1,15.3,0000.0,0010.77,0006.58,0006.14
2022-03-30 18:35:00,,0818.0,4.99,0.00,22.3,21.8,00.0,31.3,24.1,14.5,0000.0,0010.86,0006.63,0006.15
2022-03-30 18:36:00,,0818.0,5.00,0.00,22.3,21.8,00.0,31.3,24.1,14.2,0000.0,0010.85,0006.66,0006.17
2022-03-30 18:37:00,,0818.0,5.01,0.00,22.3,21.8,00.0,31.3,24.1,14.4,0000.0,0010.36,0006.65,0006.19
2022-03-30 18:38:00,,0818.0,5.01,0.00,22.3,21.8,00.0,31.3,24.2,14.5,0000.0,0010.19,0006.66,0006.21
2022-03-30 18:39:00,,0818.0,5.00,0.00,22.3,21.8,00.0,31.3,24.1,14.4,0000.0,0010.04,0006.70,0006.23
2022-03-30 18:40:00,,0818.0,4.98,0.00,22.4,21.8,00.0,31.3,24.2,14.1,0000.0,0010.18,0006.75,0006.23
2022-03-30 18:41:00,,0818.0,5.00,0.00,22.4,21.8,00.0,31.3,24.2,14.4,0000.0,0010.08,0006.77,0006.23
2022-03-30 18:42:00,,0818.0,5.01,0.00,22.4,21.8,00.0,31.3,24.2,14.3,0000.0,0009.87,0006.75,0006.23
2022-03-30 18:43:00,,0818.0,5.00,0.00,22.4,21.8,00.0,31.3,24.2,14.2,0000.0,0010.34,0006.78,0006.23
2022-03-30 18:44:00,,0818.0,5.00,0.00,22.4,21.9,00.0,31.3,24.3,14.2,0000.0,0010.46,0006.78,0006.23
2022-03-30 18:45:00,,0818.0,5.00,0.00,22.4,21.9,00.0,31.4,24.3,14.1,0000.0,0010.36,0006.78,0006.24
2022-03-30 18:46:00,,0818.0,5.00,0.00,22.5,21.9,00.0,31.4,24.4,13.8,0000.0,0010.46,0006.77,0006.24
2022-03-30 18:47:00,,0818.0,4.99,0.00,22.5,22.0,00.0,31.4,24.4,13.5,0000.0,0010.91,0006.76,0006.22
2022-03-30 18:48:00,,0817.9,5.00,0.00,22.5,22.0,00.0,31.4,24.4,13.5,0000.0,0010.90,0006.75,0006.20
2022-03-30 18:49:00,,0817.9,4.99,0.00,22.6,22.0,00.0,31.4,24.5,13.2,0000.0,0010.97,0006.75,0006.18
2022-03-30 18:50:00,,0817.8,4.99,0.00,22.6,22.1,00.0,31.4,24.5,13.3,0000.0,0010.96,0006.73,0006.16
2022-03-30 18:51:00,,0817.8,5.00,0.00,22.6,22.1,00.0,31.4,24.5,13.4,0000.0,0010.84,0006.69,0006.15
2022-03-30 18:52:00,,0817.8,5.00,0.00,22.6,22.1,00.0,31.5,24.5,13.5,0000.0,0010.89,0006.66,0006.16
2022-03-30 18:53:00,,0817.8,5.00,0.00,22.7,22.2,00.0,31.5,24.6,13.4,0000.0,0011.94,0006.67,0006.16
2022-03-30 18:54:00,,0817.8,5.00,0.00,22.7,22.2,00.0,31.5,24.6,13.5,0000.0,0012.40,0006.66,0006.14
2022-03-30 18:55:00,,0817.7,5.00,0.00,22.7,22.2,00.0,31.5,24.6,13.4,0000.0,0012.55,0006.65,0006.13
2022-03-30 18:56:00,,0817.7,4.99,0.00,22.7,22.2,00.0,31.5,24.6,13.5,0000.0,0012.69,0006.64,0006.11
2022-03-30 18:57:00,,0817.7,4.99,0.00,22.7,22.2,00.0,31.6,24.6,14.0,0000.0,0012.63,0006.67,0006.10
2022-03-30 18:58:00,,0817.7,5.01,0.00,22.7,22.2,00.0,31.6,24.6,13.5,0000.1,0012.14,0006.66,0006.11
2022-03-30 18:59:00,,0817.6,4.99,0.00,22.7,22.2,00.0,31.6,24.6,13.4,0001.6,0012.23,0006.65,0006.10
